| time (UTC) | temp C | wind direction | speed KPH | gust KPH | rain 1hr cm | rain 24hr cm | rain mn cm | humidity % | barometer mb |
| 20260503225727 | 20 | 32 | 4.8 | 27.4 | 0.00 | 0.00 | 0.00 | 59 | 1009.5 |
| 20260503225227 | 20 | 323 | 4.8 | 30.6 | 0.00 | 0.00 | 0.00 | 58 | 1009.7 |
| 20260503224727 | 20 | 298 | 12.9 | 30.6 | 0.00 | 0.00 | 0.00 | 58 | 1009.6 |
| 20260503224227 | 20 | 275 | 16.1 | 46.7 | 0.00 | 0.00 | 0.00 | 57 | 1009.7 |
| 20260503223226 | 20 | 68 | 30.6 | 38.6 | 0.00 | 0.00 | 0.00 | 56 | 1009.8 |
| 20260503222226 | 21 | 293 | 9.7 | 35.4 | 0.00 | 0.00 | 0.00 | 53 | 1009.9 |
| 20260503221726 | 21 | 8 | 30.6 | 35.4 | 0.00 | 0.00 | 0.00 | 52 | 1009.9 |
| 20260503221226 | 22 | 314 | 16.1 | 27.4 | 0.00 | 0.00 | 0.00 | 52 | 1009.9 |
| 20260503220726 | 22 | 359 | 9.7 | 35.4 | 0.00 | 0.00 | 0.00 | 54 | 1009.9 |
| 20260503220226 | 22 | 39 | 16.1 | 35.4 | 0.00 | 0.00 | 0.00 | 51 | 1010.0 |
| 20260503215225 | 22 | 15 | 20.9 | 32.2 | 0.00 | 0.00 | 0.00 | 52 | 1010.1 |
| 20260503214725 | 22 | 37 | 8.0 | 32.2 | 0.00 | 0.00 | 0.00 | 52 | 1010.2 |
| 20260503214225 | 22 | 359 | 12.9 | 30.6 | 0.00 | 0.00 | 0.00 | 51 | 1010.1 |
| 20260503213726 | 22 | 326 | 8.0 | 35.4 | 0.00 | 0.00 | 0.00 | 53 | 1010.2 |
| 20260503213225 | 22 | 14 | 22.5 | 35.4 | 0.00 | 0.00 | 0.00 | 52 | 1010.2 |
| 20260503212726 | 22 | 325 | 12.9 | 19.3 | 0.00 | 0.00 | 0.00 | 53 | 1010.2 |
| 20260503212226 | 23 | 331 | 4.8 | 19.3 | 0.00 | 0.00 | 0.00 | 52 | 1010.2 |
| 20260503211726 | 23 | 342 | 4.8 | 22.5 | 0.00 | 0.00 | 0.00 | 51 | 1010.2 |
| 20260503211225 | 23 | 296 | 9.7 | 35.4 | 0.00 | 0.00 | 0.00 | 51 | 1010.2 |
| 20260503210725 | 23 | 4 | 16.1 | 35.4 | 0.00 | 0.00 | 0.00 | 53 | 1010.3 |
| 20260503210226 | 23 | 299 | 8.0 | 35.4 | 0.00 | 0.00 | 0.00 | 53 | 1010.2 |
| 20260503205725 | 23 | 299 | 8.0 | 35.4 | 0.00 | 0.00 | 0.00 | 51 | 1010.3 |
| 20260503205225 | 23 | 296 | 12.9 | 16.1 | 0.00 | 0.00 | 0.00 | 51 | 1010.3 |
| 20260503204725 | 25 | 294 | 8.0 | 16.1 | 0.00 | 0.00 | 0.00 | 49 | 1010.3 |
| 20260503203724 | 27 | 290 | 8.0 | 16.1 | 0.00 | 0.00 | 0.00 | 44 | 1010.3 |
| 20260503202725 | 29 | 304 | 9.7 | 16.1 | 0.00 | 0.00 | 0.00 | 38 | 1010.3 |
| 20260503202224 | 30 | 36 | 4.8 | 16.1 | 0.00 | 0.00 | 0.00 | 35 | 1010.3 |
| 20260503201224 | 30 | 346 | 4.8 | 8.0 | 0.00 | 0.00 | 0.00 | 36 | 1010.5 |
| 20260503200724 | 29 | 135 | 3.2 | 14.5 | 0.00 | 0.00 | 0.00 | 38 | 1010.5 |
| 20260503200224 | 28 | 18 | 4.8 | 19.3 | 0.00 | 0.00 | 0.00 | 38 | 1010.6 |
| 20260503195725 | 28 | 359 | 8.0 | 19.3 | 0.00 | 0.00 | 0.00 | 37 | 1010.6 |
| 20260503194724 | 28 | 15 | 4.8 | 14.5 | 0.00 | 0.00 | 0.00 | 36 | 1010.9 |
| 20260503193724 | 28 | 319 | 9.7 | 11.3 | 0.00 | 0.00 | 0.00 | 39 | 1010.9 |
| 20260503192724 | 28 | 347 | 12.9 | 22.5 | 0.00 | 0.00 | 0.00 | 39 | 1011.0 |
| 20260503192223 | 28 | 14 | 8.0 | 22.5 | 0.00 | 0.00 | 0.00 | 40 | 1011.2 |
| 20260503191723 | 28 | 51 | 4.8 | 14.5 | 0.00 | 0.00 | 0.00 | 41 | 1011.1 |
| 20260503190723 | 27 | 316 | 4.8 | 22.5 | 0.00 | 0.00 | 0.00 | 40 | 1011.3 |
| 20260503190224 | 27 | 344 | 17.7 | 22.5 | 0.00 | 0.00 | 0.00 | 41 | 1011.3 |
| 20260503185723 | 27 | 316 | 4.8 | 8.0 | 0.00 | 0.00 | 0.00 | 40 | 1011.4 |
| 20260503185223 | 27 | 317 | 8.0 | 11.3 | 0.00 | 0.00 | 0.00 | 41 | 1011.4 |
| 20260503184723 | 26 | 352 | 8.0 | 19.3 | 0.00 | 0.00 | 0.00 | 41 | 1011.5 |
| 20260503184223 | 26 | 338 | 8.0 | 19.3 | 0.00 | 0.00 | 0.00 | 42 | 1011.5 |
| 20260503183223 | 27 | 32 | 4.8 | 14.5 | 0.00 | 0.00 | 0.00 | 43 | 1011.6 |
| 20260503182723 | 26 | 22 | 4.8 | 8.0 | 0.00 | 0.00 | 0.00 | 43 | 1011.5 |
| 20260503182222 | 26 | 123 | 0.0 | 4.8 | 0.00 | 0.00 | 0.00 | 43 | 1011.6 |
| 20260503181722 | 26 | 36 | 3.2 | 11.3 | 0.00 | 0.00 | 0.00 | 44 | 1011.6 |
| 20260503180723 | 26 | 15 | 4.8 | 16.1 | 0.00 | 0.00 | 0.00 | 43 | 1011.6 |
| 20260503175722 | 26 | 44 | 8.0 | 8.0 | 0.00 | 0.00 | 0.00 | 44 | 1011.6 |
| 20260503175223 | 25 | 169 | 0.0 | 11.3 | 0.00 | 0.00 | 0.00 | 46 | 1011.5 |
| 20260503174722 | 25 | 357 | 8.0 | 11.3 | 0.00 | 0.00 | 0.00 | 44 | 1011.6 |
| 20260503174222 | 25 | 334 | 3.2 | 11.3 | 0.00 | 0.00 | 0.00 | 45 | 1011.5 |
| 20260503173722 | 25 | 66 | 4.8 | 11.3 | 0.00 | 0.00 | 0.00 | 45 | 1011.6 |
| 20260503173222 | 25 | 66 | 4.8 | 11.3 | 0.00 | 0.00 | 0.00 | 45 | 1011.6 |
| 20260503172722 | 25 | 44 | 4.8 | 14.5 | 0.00 | 0.00 | 0.00 | 43 | 1011.5 |
| 20260503172222 | 25 | 7 | 9.7 | 14.5 | 0.00 | 0.00 | 0.00 | 45 | 1011.6 |
| 20260503171222 | 25 | 62 | 4.8 | 14.5 | 0.00 | 0.00 | 0.00 | 45 | 1011.6 |
| 20260503170723 | 25 | 305 | 4.8 | 14.5 | 0.00 | 0.00 | 0.00 | 44 | 1011.6 |
| 20260503170221 | 24 | 86 | 3.2 | 4.8 | 0.00 | 0.00 | 0.00 | 47 | 1011.5 |